{"data":{"norad_id":59167,"intl_designator":"2024-044R","name":"STARLINK-31298","alt_names":[],"object_type":"PAYLOAD","status":"ACTIVE","operator":null,"country":"US","launch_date":"2024-03-04","launch_site_code":"AFETR","launch_vehicle":null,"mission":null,"orbit_class":"UNKNOWN","rcs_meters":null,"size_class":null,"mass_kg":null,"dimensions":null,"purposes":["comms"],"wikipedia_slug":null,"has_3d_model":false,"image_url":null,"decayed_at":null,"tle_current":{"epoch":"2026-05-24T23:33:38.437632Z","epoch_age_seconds":73689,"freshness":"FRESH","line1":"1 59167U 24044R   26144.98169488 -.00000055  00000+0  75176-5 0  9993","line2":"2 59167  43.0008  36.1523 0001342 260.8553  99.2147 15.27583919125239","mean_motion":15.27583919,"eccentricity":0.0001342,"inclination_deg":43.0008,"raan_deg":36.1523,"arg_perigee_deg":260.8553,"mean_anomaly_deg":99.2147,"bstar":7.5176e-6,"rev_number":12523,"period_min":94.266506873329,"perigee_km":482.11659156962,"apogee_km":483.95813076816,"semimajor_km":6861.1743611689,"source":"CELESTRAK","updated_at":"2026-05-25T13:38:18.835586Z"}}}